Weston, WY

4:55 PM MST on February 08, 2016 (GMT -0700)
Gillette-Campbell County

Weather History for KGCC - November, 2012

Change the Weather History Date:

Thursday, November 8, 2012

  Actual Average Record
Temperature  
Mean Temperature 39 °F 36 °F  
Max Temperature 54 °F 49 °F 75 °F (1999)
Min Temperature 23 °F 24 °F 1 °F (2000)
Degree Days  
Heating Degree Days 26 29  
Month to date heating degree days 148 217  
Since 1 July heating degree days 945 1126  
Cooling Degree Days 0 0  
Month to date cooling degree days 0 0  
Year to date cooling degree days 795 502  
Moisture  
Dew Point 27 °F    
Average Humidity 63    
Maximum Humidity 88    
Minimum Humidity 38    
Precipitation  
Precipitation 0.00 in 0.02 in 0.32 in (1966)
Month to date precipitation T 0.18  
Year to date precipitation 8.47 13.12  
Sea Level Pressure  
Sea Level Pressure 29.88 in    
Wind  
Wind Speed 11 mph (SE)    
Max Wind Speed 28 mph    
Max Gust Speed 36 mph    
Visibility 10 miles    
Events      
T = Trace of Precipitation, MM = Missing Value Source: NWS Daily Summary

Daily Weather History Graph

Daily Weather History Graph

Search for Another Location

Airport or City:

Trip Planner

Search our weather history database for the weather conditions in past years. The results will help you decide how hot, cold, wet, or windy it might be!

Date:

Astronomy

Nov. 08, 2012 Rise Set
Actual Time 6:49 AM MST 4:41 PM MST
Civil Twilight 6:18 AM MST 5:12 PM MST
Nautical Twilight 5:43 AM MST 5:47 PM MST
Astronomical Twilight 5:09 AM MST 6:21 PM MST
Moon 12:34 AM MST 1:35 PM MST
Length of Visible Light 10h 54m
Length of Day
9h 52m
Waning Crescent, 32% of the Moon is Illuminated
Nov 8
Waning Crescent
Nov 13
New
Nov 20
First Quarter
Nov 28
Full
Dec 6
Last Quarter

Hourly Weather History & Observations

Time (MST) Temp. Windchill Dew Point Humidity Pressure Visibility Wind Dir Wind Speed Gust Speed Precip Events Conditions
12:53 AM 39.9 °F 33.4 °F 28.9 °F 65% 29.88 in 10.0 mi North 10.4 mph - N/A   Clear
1:53 AM 37.9 °F 34.4 °F 28.0 °F 68% 29.91 in 10.0 mi North 4.6 mph - N/A   Clear
2:53 AM 34.0 °F 31.0 °F 27.0 °F 75% 29.94 in 10.0 mi NW 3.5 mph - N/A   Clear
3:53 AM 32.0 °F 26.4 °F 26.1 °F 79% 29.95 in 10.0 mi North 5.8 mph - N/A   Clear
4:53 AM 24.1 °F - 21.0 °F 88% 30.00 in 10.0 mi Calm Calm - N/A   Clear
5:53 AM 25.0 °F - 21.9 °F 88% 30.01 in 10.0 mi Calm Calm - N/A   Clear
6:53 AM 26.1 °F 21.9 °F 23.0 °F 88% 30.02 in 10.0 mi SW 3.5 mph - N/A   Clear
7:53 AM 32.0 °F 28.7 °F 27.0 °F 82% 30.02 in 10.0 mi South 3.5 mph - N/A   Clear
8:53 AM 41.0 °F 39.0 °F 28.9 °F 62% 29.99 in 10.0 mi ENE 3.5 mph - N/A   Clear
9:53 AM 44.1 °F 39.0 °F 28.9 °F 55% 29.97 in 10.0 mi East 9.2 mph - N/A   Clear
10:53 AM 45.0 °F 39.3 °F 25.0 °F 46% 29.96 in 10.0 mi ENE 11.5 mph - N/A   Clear
11:53 AM 46.9 °F - 26.1 °F 44% 29.92 in 10.0 mi East 6.9 mph - N/A   Clear
12:53 PM 50.0 °F - 27.0 °F 41% 29.85 in 10.0 mi ESE 10.4 mph - N/A   Clear
1:53 PM 53.1 °F - 28.0 °F 38% 29.81 in 10.0 mi SE 17.3 mph 26.5 mph N/A   Clear
2:53 PM 52.0 °F - 30.0 °F 43% 29.81 in 10.0 mi SSE 19.6 mph 25.3 mph N/A   Clear
3:53 PM 50.0 °F - 30.0 °F 46% 29.82 in 10.0 mi SSE 18.4 mph 23.0 mph N/A   Clear
4:53 PM 46.0 °F 39.3 °F 25.0 °F 44% 29.84 in 10.0 mi SSE 16.1 mph 25.3 mph N/A   Clear
5:53 PM 43.0 °F 36.8 °F 27.0 °F 53% 29.84 in 10.0 mi ESE 11.5 mph - N/A   Clear
6:53 PM 41.0 °F 33.5 °F 27.0 °F 57% 29.84 in 10.0 mi ESE 13.8 mph 18.4 mph N/A   Clear
7:53 PM 39.9 °F 32.1 °F 28.0 °F 63% 29.81 in 10.0 mi SE 13.8 mph 21.9 mph N/A   Clear
8:53 PM 39.0 °F 28.0 °F 28.9 °F 67% 29.76 in 10.0 mi SSE 25.3 mph 33.4 mph N/A   Clear
9:53 PM 37.0 °F 27.7 °F 30.0 °F 76% 29.76 in 10.0 mi SSE 16.1 mph 31.1 mph N/A   Clear
10:53 PM 37.0 °F 28.1 °F 30.0 °F 76% 29.75 in 10.0 mi SE 15.0 mph 24.2 mph N/A   Clear
11:53 PM 36.0 °F 26.0 °F 30.9 °F 82% 29.73 in 10.0 mi SSE 17.3 mph 26.5 mph N/A   Clear